Regional Weather Roundup
Issued by NWS Northern Indiana

Home | Current Version | Previous Version | Graphics & Text | Print | Product List | Glossary On
Versions: 1 2 3 4 5 6 7 8 9 10 11 12 13 14 15 16 17 18 19 20 21 22 23 24 25 26 27 28 29 30 31 32 33 34 35 36 37 38 39 40 41 42 43 44 45 46 47 48 49 50
000
ASUS43 KIWX 080910
RWRIWX

KIWX WEATHER ROUNDUP
NATIONAL WEATHER SERVICE NORTHERN INDIANA
400 AM EST THU DEC 08 2016

NOTE: "FAIR" INDICATES FEW OR NO CLOUDS BELOW 12,000 FEET WITH NO
SIGNIFICANT WEATHER AND/OR OBSTRUCTIONS TO VISIBILITY.

* THESE STATIONS ARE NOT UNDER NWS QUALITY CONTROL. THEY ALSO MAY NOT
  REPORT WEATHER SUCH AS PRECIPITATION OR FOG.

INZ001>027-081000-
NORTHERN INDIANA

CITY           SKY/WX    TMP DP  RH WIND       PRES   REMARKS
GARY*          FLURRIES  25  16  66 W16G28    30.18S WCI  13
VALPARAISO     CLOUDY    24  14  65 W17       30.17S WCI  11
MICHIGAN CITY* CLOUDY    27  18  69 W14G20    30.16S WCI  15
LAPORTE*       CLOUDY    23  15  70 W13G22    30.15F WCI  11
KNOX*          CLOUDY    23   0  36 W16G22    30.17F WCI  10
SOUTH BEND     CLOUDY    22  16  78 W17       30.13S WCI   8
GOSHEN         CLOUDY    24  14  65 W16       30.12F WCI  11
MONTICELLO*    CLOUDY    24  13  62 W17       30.20S WCI  10
LOGANSPORT*    CLOUDY    23  16  74 W18G24    30.20S WCI   9
ROCHESTER*     MOCLDY    27  19  74 W12G17    30.16F WCI  16
WARSAW*        CLOUDY    23  14  68 W15G23    30.14F WCI  10
ANGOLA*        CLOUDY    25  19  80 W12       30.07F WCI  14
FORT WAYNE     CLOUDY    24  15  68 W22       30.14S WCI   9
HUNTINGTON*    CLOUDY    23  15  72 W9G17     30.15S WCI  13
PERU/GRISSOM   MIX PCPN  24  16  71 W17       30.16S WCI  10
MARION*        CLOUDY    23  17  75 W18G25    30.18S HAZE    WCI   9

$$
INZ028>050-081000-
CENTRAL INDIANA

CITY           SKY/WX    TMP DP  RH WIND       PRES   REMARKS
LAFAYETTE      CLOUDY    23  15  71 W16G26    30.23S WCI  10
KOKOMO*        FLURRIES  24  18  77 W20G25    30.18F WCI  10
MUNCIE*        CLOUDY    25  16  68 W13G24    30.17S WCI  14
INDIANAPOLIS   PTCLDY    25  15  66 W14G24    30.22R WCI  13

$$
MIZ043>046-050>051-056>058-064>065-071>073-077>080-081000-
SOUTHWEST LOWER MICHIGAN

CITY           SKY/WX    TMP DP  RH WIND       PRES   REMARKS
BATTLE CREEK   CLOUDY    27  19  72 W21G30    30.04F WCI  13
BENTON HARBOR  CLOUDY    28  18  66 W20G28    30.11S WCI  15
COLDWATER*     CLOUDY    26  18  71 W20G26    30.06F WCI  13
HILLSDALE*     CLOUDY    25  19  80 W18G25    30.02S WCI  11
HOLLAND        CLOUDY    27  19  72 W16       30.06S WCI  15
GRAND RAPIDS   CLOUDY    27  18  69 W18G26    30.02F WCI  14
KALAMAZOO      CLOUDY    27  18  69 W16G23    30.06F WCI  15
STURGIS*       CLOUDY    24  18  77 W13G20    30.07F WCI  12
THREE RIVERS*  CLOUDY    26  19  72 W14G21    30.08F WCI  15

$$
OHZ001>008-015>018-024>025-081000-
NORTHWEST OHIO

CITY           SKY/WX    TMP DP  RH WIND       PRES   REMARKS
WAUSEON*       CLOUDY    27  19  74 W21G29    30.06S WCI  13
DEFIANCE       CLOUDY    26  16  65 W14G22    30.11S WCI  14
FINDLAY        CLOUDY    27  18  69 W17       30.08F WCI  14
TOLEDO EXPRESS CLOUDY    26  18  71 W17G24    30.07S WCI  13
TOLEDO METCALF CLOUDY    28  19  69 W15       30.07F WCI  16
LIMA           CLOUDY    25  19  78 W18       30.10F WCI  11

$$
AND FOR LAKE MICHIGAN COASTAL AND OPEN LAKE BUOY OBSERVATIONS

STATION/POSITION TEMP    WIND        PRES    VSBY  WAVE
                 AIR SEA DIR/SP/G                  HT/PER
                 (F)     (DEG/KT/KT) (MB)    (MI)  (FT/S)
CALUMET HARBOR    23     260/ 12/ 15 1021.0R
MICHIGAN CITY     26     230/ 27/ 31   N/A
BURNS HARBOR      26     260/ 21/ 29 1021.7F
SAINT JOSEPH      29     250/ 19/ 24 1020.3

$$
&&



USA.gov is the U.S. government's official web portal to all federal, state and local government web resources and services.